Temperature
14 14 14 14 14 14 13 13 13 13 13 13 13 13 12 12 11 11 11 10 10 10 9 9 9 9 8 8 8 7 7 7 6 6 6 6 5 5 5 4 4 4 3
14 14 14 14 14 13 13 13 13 13 13 13 13 12 12 12 11 11 11 10 10 10 9 9 9 8 8 8 8 7 7 7 6 6 6 5 5 5 4 4 4 3 3
14 14 13 13 13 14 14 13 13 12 12 12 12 12 12 12 12 11 11 10 10 10 10 9 9 8 8 8 8 7 7 6 6 5 5 5 5 4 4 4 3 3 3
13 13 13 13 13 14 14 13 13 12 12 12 12 12 12 12 11 11 11 10 10 10 9 9 9 8 8 8 7 7 7 6 6 5 5 5 4 4 3 3 3 3 2
13 13 13 13 13 13 13 13 12 12 12 12 12 12 12 11 11 11 11 10 10 10 9 9 8 8 8 7 7 7 6 6 5 5 5 4 4 3 3 2 2 2 2
12 12 12 12 12 12 12 12 12 12 12 12 12 12 11 11 11 11 10 10 10 9 9 9 8 8 8 7 7 6 6 5 5 5 4 4 3 3 2 2 1 1 0
11 12 12 12 12 12 12 12 11 12 12 11 12 11 11 11 11 11 10 10 10 9 9 9 8 8 7 7 7 6 6 5 5 4 4 3 3 2 2 1 1 0 -0
10 11 11 11 11 11 11 11 11 11 11 11 11 11 11 11 11 10 10 9 9 9 9 8 8 8 7 7 6 6 5 5 4 4 3 3 2 2 1 1 0 -0 -1
10 10 11 11 11 11 11 11 11 11 11 11 11 11 11 11 11 10 10 9 9 8 8 8 7 7 7 7 6 6 5 5 4 3 3 2 2 1 1 0 -0 -1 -1
10 10 10 11 11 11 11 11 11 11 11 11 11 11 11 11 10 10 9 9 8 8 8 7 7 7 7 6 6 5 5 4 4 3 2 2 1 1 0 -0 -1 -1 -2
9 10 10 10 11 11 11 11 11 11 10 10 10 10 10 10 10 9 9 9 8 8 8 7 7 7 6 6 5 5 4 4 3 2 2 1 1 0 -0 -1 -1 -2 -3
9 9 9 10 10 10 10 10 10 10 10 10 10 10 10 9 9 9 9 8 8 8 7 7 7 6 6 5 4 4 4 3 3 2 1 1 1 0 -0 -1 -2 -3 -3
8 9 9 9 9 10 10 10 10 10 10 10 9 9 9 9 9 9 8 8 8 7 7 7 6 6 5 4 4 4 3 3 2 2 1 1 0 -1 -1 -2 -2 -3 -3
8 8 8 9 9 9 9 10 10 10 10 9 9 9 9 9 8 8 8 8 7 7 7 6 5 5 4 4 4 3 2 2 2 1 1 0 -0 -1 -2 -2 -3 -3 -3
7 8 8 8 9 9 9 9 10 10 10 10 9 9 9 9 9 9 8 8 7 7 6 6 5 4 4 4 3 2 2 1 1 1 0 -0 -1 -1 -2 -3 -3 -4 -4
7 7 8 8 8 8 8 9 9 9 9 9 9 9 9 9 8 8 8 8 7 7 6 5 5 4 4 3 3 2 2 1 1 0 -0 -1 -1 -2 -3 -3 -4 -4 -5
7 7 7 8 8 8 8 8 8 8 8 8 8 8 8 8 8 8 7 7 6 6 5 5 5 4 4 3 2 2 1 1 0 -0 -1 -1 -2 -2 -3 -4 -4 -5 -5
6 7 7 7 8 8 8 8 8 7 7 7 7 8 8 8 7 7 7 6 6 5 5 5 4 4 3 3 2 1 1 0 -0 -1 -1 -2 -2 -3 -4 -4 -5 -5 -6
6 6 7 7 7 7 8 7 7 7 7 7 7 7 7 7 6 6 6 6 6 5 5 4 4 3 3 2 2 1 0 -0 -1 -1 -2 -2 -3 -3 -4 -5 -5 -6 -6
6 6 6 7 7 7 7 7 7 7 7 7 6 6 6 6 5 5 5 5 5 5 4 4 3 3 2 2 1 1 -0 -1 -1 -2 -2 -3 -3 -4 -5 -5 -6 -6 -6
6 6 6 6 6 6 6 7 7 7 6 6 6 6 6 6 6 5 5 5 5 5 4 4 3 3 2 1 1 0 -1 -1 -2 -2 -2 -3 -4 -4 -5 -5 -6 -6 -6
5 5 5 6 6 6 6 6 6 6 6 6 6 5 5 5 5 5 5 5 4 4 4 3 3 2 1 1 0 -0 -1 -1 -2 -2 -3 -3 -4 -5 -5 -6 -6 -6 -7
5 5 5 5 5 5 5 6 6 6 6 5 5 5 5 5 5 5 4 4 4 4 3 2 2 1 1 0 -0 -1 -1 -1 -2 -2 -3 -3 -4 -5 -5 -6 -6 -7 -7
4 4 5 5 5 5 5 5 5 5 5 5 5 5 5 5 5 4 4 4 3 3 2 2 1 1 0 -0 -1 -1 -2 -2 -2 -3 -3 -4 -5 -5 -6 -6 -6 -7 -7
4 4 4 4 4 5 5 5 5 5 5 5 5 5 5 4 4 4 3 3 3 2 2 1 1 0 -0 -1 -1 -1 -2 -2 -3 -3 -4 -4 -5 -5 -6 -6 -7 -7 -7
3 3 4 4 4 4 4 4 4 5 5 5 4 4 4 4 4 3 3 3 2 2 1 1 0 -0 -1 -1 -1 -2 -2 -3 -3 -4 -4 -5 -5 -6 -6 -7 -7 -7 -8
Wind_Speed
16 17 18 18 18 17 16 17 16 15 15 16 16 16 15 15 14 13 12 12 12 10 9 10 9 7 6 5 4 4 4 4 5 3 2 1 1 2 4 5 6 7 8
15 16 17 17 16 17 17 16 16 16 16 16 15 15 15 15 15 15 14 13 13 12 11 10 9 7 8 6 5 5 5 5 5 5 2 2 2 2 2 3 5 6 8
12 14 15 15 17 18 17 15 15 15 15 14 15 16 15 15 15 14 14 13 13 12 12 12 11 10 9 7 6 6 5 4 4 4 3 1 1 1 2 3 3 4 7
10 12 15 16 17 17 16 15 15 16 16 15 15 15 15 14 14 14 13 12 12 11 11 11 11 11 11 10 8 7 5 5 4 3 3 1 1 1 1 2 4 3 4
9 12 13 14 13 13 14 14 14 15 16 15 14 13 13 13 13 14 13 13 12 11 10 10 10 11 12 10 7 7 7 5 4 3 2 1 1 1 2 1 3 4 4
8 10 10 10 12 13 14 13 13 14 14 14 15 15 14 12 16 19 16 12 12 12 10 9 9 10 11 12 11 10 10 7 6 4 3 3 3 2 1 1 1 3 4
6 8 9 10 11 12 13 13 14 14 13 14 14 14 14 15 19 20 19 13 12 11 11 9 7 8 9 7 8 8 7 7 7 6 4 4 3 3 2 1 1 2 3
6 7 9 10 11 11 12 13 13 12 13 13 13 14 13 14 19 20 20 13 10 10 10 10 10 9 9 9 8 6 4 3 4 4 4 4 2 2 2 2 1 1 2
6 7 9 10 12 12 12 12 10 11 12 12 13 14 13 13 19 20 18 10 9 9 8 9 10 9 12 13 10 8 5 3 3 5 4 4 4 4 4 3 2 2 3
7 7 8 9 11 13 13 11 9 10 11 11 11 12 13 12 18 20 19 10 9 8 7 7 11 11 13 14 10 9 7 5 4 4 4 4 4 4 4 2 2 0 1
5 6 7 8 10 10 10 9 10 10 10 11 11 10 11 13 17 21 20 11 10 9 8 7 7 13 14 14 11 7 8 7 6 5 3 3 3 2 2 2 1 1 1
5 6 7 7 8 8 10 10 11 12 11 11 10 9 7 9 13 17 20 16 14 10 9 7 8 14 14 13 9 9 11 9 5 4 3 2 1 0 1 2 2 2 2
5 6 7 7 8 10 11 12 11 11 10 10 10 9 8 7 10 17 19 18 16 9 8 12 14 15 13 10 11 12 10 6 5 4 3 1 1 1 1 2 3 4 4
6 6 7 8 9 9 9 10 10 11 10 10 10 10 9 8 8 9 10 11 13 11 10 13 16 14 10 10 9 7 5 5 4 4 3 2 1 1 1 1 2 2 3
6 7 7 7 9 9 8 7 9 9 11 12 10 10 12 11 12 17 14 11 11 11 12 8 7 7 6 5 5 5 4 4 4 3 3 2 2 1 1 1 1 2 2
7 7 6 7 8 8 8 6 6 7 11 12 12 12 9 12 19 20 19 19 21 22 13 9 8 7 7 7 6 5 4 4 3 3 3 2 2 1 1 1 1 1 2
8 7 6 7 8 9 9 9 8 7 10 11 13 14 15 19 21 21 21 22 22 19 9 8 8 8 7 7 6 5 4 4 4 4 3 3 2 1 1 1 2 2 3
7 8 7 7 8 9 9 9 9 10 8 6 8 14 18 20 21 22 23 18 11 8 7 8 8 8 7 7 6 5 5 4 4 4 3 2 2 2 1 0 1 2 3
7 7 6 7 8 8 9 9 9 9 9 8 8 9 15 18 20 20 18 10 10 8 7 7 7 7 7 7 6 6 6 5 4 4 3 3 2 2 1 0 1 3 3
6 9 8 8 9 9 9 9 10 10 10 10 10 10 10 11 10 10 7 7 8 8 8 8 7 7 7 7 7 6 5 5 5 4 3 3 2 2 1 1 1 1 2
7 8 10 9 9 9 9 10 10 10 10 9 8 10 15 11 10 10 8 8 8 9 9 8 8 8 7 7 6 6 6 5 5 4 4 3 2 2 1 1 1 1 2
7 8 8 9 9 9 9 9 10 10 11 11 9 10 14 9 8 8 7 7 7 7 7 8 8 7 7 7 8 7 6 6 5 5 4 3 3 2 1 0 0 1 1
8 9 8 8 9 11 10 9 10 10 10 11 11 10 9 8 8 8 8 8 7 7 7 8 8 7 7 7 8 7 7 7 6 6 5 4 3 2 1 1 0 1 2
8 9 10 10 9 9 10 10 9 10 11 11 10 10 9 9 9 9 9 8 8 8 8 8 8 9 10 8 8 7 7 8 8 7 7 5 4 3 2 1 0 1 1
8 9 10 10 10 10 10 10 10 10 10 10 10 10 10 10 9 9 8 8 9 9 9 9 9 10 11 11 9 9 10 10 9 8 7 5 4 3 2 1 0 0 1
9 9 9 9 9 10 10 11 11 11 11 10 10 10 10 10 10 10 9 9 9 8 8 8 10 11 11 10 11 11 11 10 9 9 7 6 4 3 2 1 1 0 1
Wind_Direction
205 204 203 203 201 197 197 199 196 190 186 186 188 188 188 188 186 187 187 181 187 188 186 189 194 184 184 186 178 175 184 181 220 259 235 254 264 292 311 300 292 293 297
205 204 203 200 198 197 198 197 192 190 189 187 184 185 187 187 186 187 187 185 188 190 190 188 192 184 189 185 183 189 195 194 204 242 244 238 248 277 301 303 304 300 296
203 201 200 197 197 197 197 193 189 189 187 185 183 186 186 186 186 187 186 186 189 190 189 190 191 184 192 191 187 193 197 193 196 215 241 228 258 298 315 307 308 301 308
201 199 200 197 198 197 193 189 187 186 185 186 186 186 184 183 184 183 182 183 186 188 189 190 189 188 193 191 192 196 185 181 181 199 227 236 253 289 299 303 313 315 315
200 199 202 198 193 191 187 186 184 183 184 183 181 181 180 181 184 180 180 181 182 184 185 187 189 188 189 187 186 185 177 180 179 191 211 221 245 284 278 274 295 319 306
202 200 196 189 187 186 184 180 179 180 179 178 181 181 182 185 179 176 177 180 181 182 183 184 183 184 187 187 183 177 174 178 185 184 202 221 238 235 235 279 306 337 307
204 195 188 185 183 183 178 176 179 178 176 178 180 180 183 183 174 175 175 177 179 182 181 178 175 180 177 176 175 170 174 175 172 173 189 210 215 216 197 222 246 268 270
202 189 184 182 181 176 174 178 179 176 177 179 179 180 180 179 172 173 171 174 173 176 176 174 174 175 174 165 157 155 159 169 173 167 177 193 192 180 178 186 219 287 295
200 190 185 181 178 174 175 176 175 173 174 176 176 175 176 175 170 169 165 170 169 168 168 168 168 170 168 159 154 154 150 145 130 132 122 108 104 103 101 86 51 15 321
203 193 185 180 178 177 176 172 168 167 170 167 169 174 175 174 171 168 163 165 164 161 157 164 168 166 164 160 161 160 164 167 142 122 95 79 74 79 84 101 148 81 326
194 180 175 177 176 172 167 164 160 158 160 162 163 167 172 172 168 168 165 168 166 161 164 167 169 164 162 163 160 164 165 150 139 132 118 93 73 66 49 35 77 161 207
174 171 171 170 167 162 159 160 159 158 160 161 159 160 164 165 165 169 168 166 161 161 165 163 160 158 156 154 153 149 141 131 125 124 120 114 98 53 1 5 358 335 269
167 168 168 164 164 163 161 160 160 160 162 164 163 164 159 156 161 162 163 160 155 152 152 151 147 146 143 143 143 140 135 131 132 133 144 159 162 142 64 23 10 0 349
170 166 164 162 161 160 162 163 164 165 164 163 165 163 157 154 155 156 156 151 145 137 133 135 133 131 128 129 131 129 126 136 139 146 148 133 110 98 76 33 2 354 354
169 164 165 165 160 158 159 165 166 172 171 168 170 165 163 168 171 161 155 154 153 146 134 125 126 131 133 126 121 121 120 122 123 127 129 125 115 89 42 25 24 11 353
169 168 167 164 156 153 147 127 112 140 148 154 159 159 162 158 153 155 154 151 147 145 136 143 149 151 153 151 147 140 134 137 136 133 132 133 137 129 55 10 13 2 328
177 174 169 164 159 156 151 147 135 110 114 135 148 151 151 151 151 152 150 147 147 145 140 151 156 158 155 153 152 151 153 149 142 139 139 139 137 131 93 11 351 341 328
174 173 170 166 160 156 152 150 148 147 143 131 136 145 148 149 149 149 146 139 146 146 147 153 156 155 153 154 154 151 146 142 141 142 144 145 141 139 121 345 323 321 321
171 168 164 158 153 149 146 144 143 142 142 140 134 136 142 143 144 147 147 148 155 156 150 148 150 150 150 151 152 151 151 152 152 152 154 154 151 142 156 284 310 330 341
170 167 163 155 150 149 149 148 147 146 146 148 150 148 145 141 147 150 149 145 149 150 149 148 146 147 149 150 150 149 149 151 153 155 159 159 158 161 179 222 294 309 308
163 160 157 153 153 154 153 152 150 148 151 151 151 155 156 155 155 154 154 152 153 152 150 147 146 148 148 148 149 152 154 158 162 163 163 163 161 163 178 209 267 298 314
161 161 160 155 151 151 150 150 148 149 151 148 144 146 148 143 144 145 146 144 140 140 143 144 147 150 155 156 156 158 161 164 167 166 165 163 162 159 156 166 314 319 328
158 155 152 150 147 149 147 147 149 151 150 150 149 147 147 145 143 142 141 138 135 133 134 137 140 141 142 147 154 161 167 173 174 168 164 163 162 163 163 171 252 316 322
157 156 154 152 150 150 150 151 151 150 149 149 148 148 147 145 142 139 139 136 134 133 134 137 140 144 143 143 147 154 159 160 159 161 159 161 164 166 164 164 214 281 296
156 155 155 154 153 152 152 152 152 150 148 148 147 145 143 140 139 138 138 136 136 135 134 134 136 140 144 145 148 151 153 152 153 155 154 151 158 163 163 163 182 295 319
153 153 153 152 153 154 155 155 153 151 150 147 145 145 145 143 142 141 140 139 137 135 133 133 136 140 142 145 149 150 150 151 151 152 150 143 151 155 153 153 155 246 310
Height
1387 1393 1399 1404 1410 1416 1422 1428 1433 1439 1445 1450 1455 1461 1466 1470 1475 1479 1483 1487 1491 1494 1496 1499 1501 1504 1506 1507 1508 1509 1509 1509 1508 1507 1507 1506 1504 1503 1501 1498 1496 1493 1491
1380 1385 1391 1397 1403 1409 1415 1421 1427 1432 1438 1443 1449 1454 1459 1464 1469 1473 1477 1481 1484 1487 1490 1493 1495 1498 1500 1502 1503 1503 1504 1504 1504 1503 1502 1501 1500 1498 1496 1494 1492 1489 1487
1373 1378 1384 1390 1396 1401 1407 1414 1420 1426 1431 1437 1443 1448 1453 1457 1462 1466 1471 1475 1478 1482 1485 1487 1490 1492 1494 1496 1497 1498 1499 1499 1499 1498 1497 1496 1495 1493 1491 1489 1487 1485 1482
1367 1371 1377 1382 1388 1394 1400 1407 1413 1419 1425 1431 1436 1441 1446 1451 1456 1460 1465 1469 1473 1476 1479 1482 1484 1486 1489 1490 1491 1492 1493 1494 1494 1493 1492 1491 1490 1488 1486 1484 1482 1480 1478
1360 1365 1369 1375 1382 1388 1394 1400 1406 1413 1419 1425 1430 1435 1440 1445 1450 1454 1459 1463 1467 1470 1473 1476 1479 1481 1483 1485 1486 1487 1488 1488 1488 1488 1487 1486 1484 1483 1481 1479 1477 1475 1472
1354 1358 1363 1369 1375 1381 1387 1394 1400 1406 1412 1418 1424 1429 1434 1439 1443 1448 1453 1457 1461 1465 1468 1470 1473 1476 1478 1479 1481 1482 1483 1483 1483 1483 1482 1481 1480 1479 1478 1476 1473 1470 1467
1348 1353 1358 1363 1368 1375 1381 1388 1394 1400 1406 1412 1418 1423 1428 1433 1438 1443 1448 1452 1456 1459 1462 1465 1468 1470 1473 1474 1476 1477 1478 1478 1479 1479 1478 1477 1476 1475 1474 1472 1470 1467 1464
1344 1348 1353 1358 1363 1369 1376 1382 1388 1395 1400 1406 1412 1418 1423 1428 1433 1438 1443 1447 1451 1454 1457 1460 1463 1465 1468 1470 1471 1472 1473 1474 1474 1474 1474 1474 1473 1472 1470 1469 1466 1464 1461
1339 1343 1348 1353 1358 1364 1369 1376 1382 1389 1395 1401 1407 1412 1418 1423 1428 1433 1438 1442 1446 1449 1453 1456 1458 1461 1463 1465 1467 1468 1469 1470 1470 1470 1470 1470 1469 1468 1467 1465 1462 1460 1456
1335 1339 1343 1348 1353 1359 1364 1371 1377 1383 1390 1396 1402 1407 1413 1418 1423 1428 1433 1437 1441 1445 1448 1451 1454 1456 1459 1460 1462 1464 1465 1465 1466 1466 1467 1466 1466 1464 1463 1461 1459 1457 1453
1332 1336 1340 1344 1349 1355 1360 1366 1372 1379 1385 1391 1397 1403 1408 1414 1419 1424 1428 1432 1436 1440 1443 1446 1449 1452 1454 1457 1458 1460 1461 1462 1462 1463 1463 1463 1462 1461 1460 1458 1456 1454 1452
1328 1332 1336 1340 1345 1351 1356 1362 1368 1374 1380 1386 1392 1398 1403 1409 1414 1419 1424 1428 1432 1436 1439 1442 1445 1448 1451 1453 1455 1456 1458 1459 1459 1459 1459 1459 1459 1458 1457 1455 1454 1451 1449
1325 1328 1332 1337 1342 1347 1352 1358 1364 1370 1376 1381 1387 1393 1398 1404 1410 1415 1419 1424 1428 1432 1435 1439 1442 1445 1447 1449 1451 1453 1454 1455 1456 1456 1456 1456 1456 1455 1454 1452 1450 1449 1447
1322 1325 1329 1333 1338 1344 1349 1354 1360 1365 1371 1376 1382 1388 1393 1399 1405 1409 1414 1419 1424 1428 1432 1435 1439 1441 1444 1446 1448 1450 1451 1452 1453 1453 1453 1453 1453 1452 1451 1449 1447 1445 1444
1319 1322 1326 1330 1335 1340 1346 1351 1356 1362 1367 1372 1378 1383 1388 1394 1400 1405 1410 1415 1419 1424 1428 1432 1435 1438 1440 1443 1445 1446 1448 1449 1450 1450 1450 1450 1450 1449 1448 1446 1444 1443 1440
1316 1319 1323 1327 1332 1337 1342 1348 1354 1360 1366 1371 1376 1381 1387 1392 1397 1402 1407 1412 1416 1421 1424 1427 1431 1434 1437 1439 1441 1443 1445 1446 1447 1447 1448 1447 1447 1446 1445 1443 1442 1440 1438
1312 1316 1319 1324 1329 1333 1339 1344 1350 1357 1363 1369 1374 1379 1384 1389 1394 1399 1404 1409 1413 1417 1421 1424 1427 1431 1433 1436 1438 1440 1442 1443 1444 1445 1445 1445 1444 1443 1442 1441 1439 1438 1436
1309 1313 1316 1321 1325 1331 1336 1341 1347 1352 1358 1364 1371 1376 1381 1387 1392 1397 1401 1406 1410 1414 1418 1421 1424 1427 1430 1433 1435 1437 1439 1440 1441 1442 1442 1442 1441 1441 1440 1439 1437 1436 1434
1306 1310 1314 1319 1323 1329 1334 1339 1344 1350 1356 1361 1367 1373 1378 1384 1389 1394 1398 1402 1406 1410 1414 1418 1421 1424 1427 1430 1433 1434 1436 1437 1438 1439 1439 1439 1439 1438 1437 1437 1436 1434 1433
1303 1307 1311 1316 1321 1326 1331 1336 1342 1347 1353 1358 1363 1369 1375 1380 1385 1390 1395 1399 1404 1408 1412 1415 1419 1422 1425 1428 1430 1432 1433 1434 1435 1436 1436 1436 1436 1436 1435 1435 1434 1433 1431
1300 1304 1309 1314 1318 1323 1329 1334 1339 1345 1350 1356 1361 1367 1373 1377 1382 1387 1392 1397 1401 1405 1409 1413 1416 1419 1422 1425 1427 1429 1431 1432 1433 1433 1434 1434 1434 1434 1433 1433 1432 1431 1430
1297 1301 1305 1310 1315 1321 1326 1332 1337 1343 1348 1354 1360 1366 1371 1376 1381 1385 1390 1395 1399 1403 1407 1411 1414 1417 1420 1422 1425 1427 1428 1429 1430 1431 1431 1432 1432 1432 1431 1431 1431 1430 1428
1294 1298 1302 1308 1313 1319 1324 1329 1335 1340 1346 1351 1357 1362 1368 1373 1378 1383 1388 1393 1397 1401 1405 1409 1412 1415 1418 1420 1422 1424 1426 1427 1428 1429 1429 1429 1429 1429 1429 1429 1429 1428 1427
1291 1295 1300 1305 1311 1316 1322 1327 1332 1338 1343 1349 1355 1361 1366 1371 1376 1381 1386 1391 1396 1399 1403 1407 1410 1413 1415 1418 1420 1422 1423 1425 1426 1426 1427 1427 1427 1428 1428 1428 1427 1427 1426
1288 1293 1298 1303 1308 1314 1319 1325 1330 1336 1341 1347 1353 1359 1364 1370 1374 1380 1385 1389 1393 1397 1401 1405 1408 1411 1413 1416 1418 1419 1421 1422 1423 1424 1425 1425 1426 1426 1426 1426 1426 1426 1425
1286 1291 1296 1301 1307 1312 1317 1322 1328 1333 1339 1345 1351 1357 1362 1368 1373 1378 1383 1387 1391 1395 1399 1403 1406 1409 1411 1413 1416 1417 1419 1420 1421 1422 1423 1424 1424 1425 1425 1425 1425 1424 1424